ProjectID,Date,Electric Generation,Electric Utility Import,Facility Electric Load
,YYYY-MM-DD,kW,kW,kW
94,2012-08-01,0.0,,0.0
94,2012-08-02,0.0,,0.0
94,2012-08-03,0.0,,0.0
94,2012-08-04,0.0,,0.0
94,2012-08-05,0.0,,0.0
94,2012-08-06,0.0,,0.0
94,2012-08-07,0.0,,0.0
94,2012-08-08,0.0,,0.0
94,2012-08-09,0.11133333333333334,,0.11133333333333334
94,2012-08-10,8.510416666666666,,8.510416666666666
94,2012-08-11,15.486333333333334,,15.486333333333334
94,2012-08-12,21.194,,21.194
94,2012-08-13,20.090500000000002,,20.090500000000002
94,2012-08-14,7.657583333333334,,7.657583333333334
94,2012-08-15,10.3815,,10.3815
94,2012-08-16,21.755208333333332,,21.755208333333332
94,2012-08-17,18.89125,,18.89125
94,2012-08-18,15.975916666666668,,15.975916666666668
94,2012-08-19,13.5775,,13.5775
94,2012-08-20,23.619791666666668,,23.619791666666668
94,2012-08-21,9.848958333333334,,9.848958333333334
94,2012-08-22,0.0,,0.0
94,2012-08-23,0.0,,0.0
94,2012-08-24,0.0,,0.0
94,2012-08-25,0.0,,0.0
94,2012-08-26,0.0,,0.0
94,2012-08-27,0.0,,0.0
94,2012-08-28,0.0,,0.0
94,2012-08-29,0.0,,0.0
94,2012-08-30,0.0,,0.0
94,2012-08-31,0.0,,0.0
94,2012-09-01,0.0,,0.0
94,2012-09-02,0.0,,0.0
94,2012-09-03,0.0,,0.0
94,2012-09-04,0.0,,0.0
94,2012-09-05,0.0,,0.0
94,2012-09-06,0.0,,0.0
94,2012-09-07,0.0,,0.0
94,2012-09-08,0.0,,0.0
94,2012-09-09,0.0,,0.0
94,2012-09-10,0.0,,0.0
94,2012-09-11,0.0,,0.0
94,2012-09-12,0.0,,0.0
94,2012-09-13,0.0,,0.0
94,2012-09-14,0.0,,0.0
94,2012-09-15,0.0,,0.0
94,2012-09-16,0.0,,0.0
94,2012-09-17,0.0,,0.0
94,2012-09-18,0.0,,0.0
94,2012-09-19,0.0,,0.0
94,2012-09-20,0.0,,0.0
94,2012-09-21,0.0,,0.0
94,2012-09-22,0.0,,0.0
94,2012-09-23,0.0,,0.0
94,2012-09-24,0.0,,0.0
94,2012-09-25,0.0,,0.0
94,2012-09-26,0.0,,0.0
94,2012-09-27,0.0,,0.0
94,2012-09-28,0.0,,0.0
94,2012-09-29,0.0,,0.0
94,2012-09-30,0.0,,0.0
94,2012-10-01,2.198541666666667,,2.198541666666667
94,2012-10-02,0.0,,0.0
94,2012-10-03,0.0,,0.0
94,2012-10-04,0.0,,0.0
94,2012-10-05,19.29104166666667,,19.29104166666667
94,2012-10-06,15.417291666666666,,15.417291666666666
94,2012-10-07,5.8352916666666665,,5.8352916666666665
94,2012-10-08,11.615250000000001,,11.615250000000001
94,2012-10-09,4.03775,,4.03775
94,2012-10-10,16.403000000000002,,16.403000000000002
94,2012-10-11,24.179666666666666,,24.179666666666666
94,2012-10-12,14.035166666666667,,14.035166666666667
94,2012-10-13,23.774083333333333,,23.774083333333333
94,2012-10-14,15.591166666666666,,15.591166666666666
94,2012-10-15,8.396541666666666,,8.396541666666666
94,2012-10-16,22.78979166666667,,22.78979166666667
94,2012-10-17,18.1615,,18.1615
94,2012-10-18,18.795583333333333,,18.795583333333333
94,2012-10-19,3.0690833333333334,,3.0690833333333334
94,2012-10-20,20.078791666666667,,20.078791666666667
94,2012-10-21,20.38225,,20.38225
94,2012-10-22,20.2285,,20.2285
94,2012-10-23,7.500041666666667,,7.500041666666667
94,2012-10-24,4.8925833333333335,,4.8925833333333335
94,2012-10-25,5.855541666666666,,5.855541666666666
94,2012-10-26,5.075458333333334,,5.075458333333334
94,2012-10-27,9.267666666666667,,9.267666666666667
94,2012-10-28,2.8952916666666666,,2.8952916666666666
94,2012-10-29,2.764416666666667,,2.764416666666667
94,2012-10-30,6.101583333333333,,6.101583333333333
94,2012-10-31,7.04175,,7.04175
94,2012-11-01,9.979208333333334,,9.979208333333334
94,2012-11-02,9.455708333333334,,9.455708333333334
94,2012-11-03,14.845791666666665,,14.845791666666665
94,2012-11-04,17.424583333333334,,17.424583333333334
94,2012-11-05,14.85225,,14.85225
94,2012-11-06,15.162125000000001,,15.162125000000001
94,2012-11-07,1.6406666666666665,,1.6406666666666665
94,2012-11-08,1.19275,,1.19275
94,2012-11-09,13.953791666666667,,13.953791666666667
94,2012-11-10,8.784458333333333,,8.784458333333333
94,2012-11-11,13.409583333333332,,13.409583333333332
94,2012-11-12,13.453125,,13.453125
94,2012-11-13,4.1425833333333335,,4.1425833333333335
94,2012-11-14,14.091291666666665,,14.091291666666665
94,2012-11-15,12.766333333333334,,12.766333333333334
94,2012-11-16,9.388083333333332,,9.388083333333332
94,2012-11-17,13.707125,,13.707125
94,2012-11-18,12.864666666666666,,12.864666666666666
94,2012-11-19,9.397166666666667,,9.397166666666667
94,2012-11-20,12.039708333333332,,12.039708333333332
94,2012-11-21,12.7845,,12.7845
94,2012-11-22,12.063749999999999,,12.063749999999999
94,2012-11-23,12.102833333333335,,12.102833333333335
94,2012-11-24,10.033833333333334,,10.033833333333334
94,2012-11-25,8.400416666666667,,8.400416666666667
94,2012-11-26,11.339791666666665,,11.339791666666665
94,2012-11-27,1.1172083333333334,,1.1172083333333334
94,2012-11-28,10.0775,,10.0775
94,2012-11-29,10.733083333333333,,10.733083333333333
94,2012-11-30,7.70775,,7.70775
94,2012-12-01,2.216833333333333,,2.216833333333333
94,2012-12-02,6.226583333333333,,6.226583333333333
94,2012-12-03,10.616625,,10.616625
94,2012-12-04,7.75325,,7.75325
94,2012-12-05,7.722041666666667,,7.722041666666667
94,2012-12-06,11.436875,,11.436875
94,2012-12-07,2.2532916666666667,,2.2532916666666667
94,2012-12-08,3.623083333333333,,3.623083333333333
94,2012-12-09,2.4122083333333335,,2.4122083333333335
94,2012-12-10,1.361375,,1.361375
94,2012-12-11,7.037791666666667,,7.037791666666667
94,2012-12-12,9.741541666666667,,9.741541666666667
94,2012-12-13,9.921916666666666,,9.921916666666666
94,2012-12-14,10.112666666666668,,10.112666666666668
94,2012-12-15,11.011166666666666,,11.011166666666666
94,2012-12-16,0.5201666666666667,,0.5201666666666667
94,2012-12-17,1.3789999999999998,,1.3789999999999998
94,2012-12-18,6.393208333333334,,6.393208333333334
94,2012-12-19,10.665375,,10.665375
94,2012-12-20,6.848291666666667,,6.848291666666667
94,2012-12-21,3.747375,,3.747375
94,2012-12-22,5.042958333333334,,5.042958333333334
94,2012-12-23,8.545625,,8.545625
94,2012-12-24,8.619166666666667,,8.619166666666667
94,2012-12-25,9.167291666666666,,9.167291666666666
94,2012-12-26,2.4173750000000003,,2.4173750000000003
94,2012-12-27,4.3575,,4.3575
94,2012-12-28,10.630833333333333,,10.630833333333333
94,2012-12-29,1.0097916666666666,,1.0097916666666666
94,2012-12-30,8.548125,,8.548125
94,2012-12-31,9.886625,,9.886625
94,2013-01-01,2.541,,2.541
94,2013-01-02,9.716791666666667,,9.716791666666667
94,2013-01-03,9.761750000000001,,9.761750000000001
94,2013-01-04,8.498708333333333,,8.498708333333333
94,2013-01-05,10.750083333333334,,10.750083333333334
94,2013-01-06,9.832749999999999,,9.832749999999999
94,2013-01-07,10.95575,,10.95575
94,2013-01-08,10.639333333333333,,10.639333333333333
94,2013-01-09,5.3607499999999995,,5.3607499999999995
94,2013-01-10,10.249458333333333,,10.249458333333333
94,2013-01-11,3.2408333333333332,,3.2408333333333332
94,2013-01-12,3.30475,,3.30475
94,2013-01-13,3.317083333333333,,3.317083333333333
94,2013-01-14,4.328125,,4.328125
94,2013-01-15,4.110125,,4.110125
94,2013-01-16,0.6745,,0.6745
94,2013-01-17,9.438833333333333,,9.438833333333333
94,2013-01-18,12.988999999999999,,12.988999999999999
94,2013-01-19,12.734458333333334,,12.734458333333334
94,2013-01-20,12.016958333333333,,12.016958333333333
94,2013-01-21,5.416083333333333,,5.416083333333333
94,2013-01-22,12.682291666666666,,12.682291666666666
94,2013-01-23,3.23175,,3.23175
94,2013-01-24,1.153125,,1.153125
94,2013-01-25,0.7604166666666666,,0.7604166666666666
94,2013-01-26,0.31775000000000003,,0.31775000000000003
94,2013-01-27,1.1576666666666666,,1.1576666666666666
94,2013-01-28,0.168625,,0.168625
94,2013-01-29,0.8965,,0.8965
94,2013-01-30,0.6347916666666666,,0.6347916666666666
94,2013-01-31,1.323625,,1.323625
94,2013-02-01,0.7735,,0.7735
94,2013-02-02,1.2786250000000001,,1.2786250000000001
94,2013-02-03,0.4603333333333333,,0.4603333333333333
94,2013-02-04,1.321625,,1.321625
94,2013-02-05,0.183625,,0.183625
94,2013-02-06,0.0,,0.0
94,2013-02-07,0.8646666666666666,,0.8646666666666666
94,2013-02-08,0.09508333333333334,,0.09508333333333334
94,2013-02-09,0.0,,0.0
94,2013-02-10,0.0,,0.0
94,2013-02-11,0.0195,,0.0195
94,2013-02-12,0.903625,,0.903625
94,2013-02-13,1.3580416666666668,,1.3580416666666668
94,2013-02-14,1.4577499999999999,,1.4577499999999999
94,2013-02-15,1.4485833333333333,,1.4485833333333333
94,2013-02-16,0.9382083333333333,,0.9382083333333333
94,2013-02-17,1.5117083333333332,,1.5117083333333332
94,2013-02-18,4.924541666666666,,4.924541666666666
94,2013-02-19,8.488958333333334,,8.488958333333334
94,2013-02-20,16.970708333333334,,16.970708333333334
94,2013-02-21,23.904958333333337,,23.904958333333337
94,2013-02-22,13.808,,13.808
94,2013-02-23,2.9850833333333333,,2.9850833333333333
94,2013-02-24,12.624333333333333,,12.624333333333333
94,2013-02-25,17.515666666666664,,17.515666666666664
94,2013-02-26,9.010458333333334,,9.010458333333334
94,2013-02-27,4.712958333333334,,4.712958333333334
94,2013-02-28,10.8685,,10.8685
94,2013-03-01,8.907625,,8.907625
94,2013-03-02,12.03325,,12.03325
94,2013-03-03,20.522208333333335,,20.522208333333335
94,2013-03-04,26.377,,26.377
94,2013-03-05,26.082708333333333,,26.082708333333333
94,2013-03-06,6.367875000000001,,6.367875000000001
94,2013-03-07,9.293666666666667,,9.293666666666667
94,2013-03-08,1.035875,,1.035875
94,2013-03-09,26.725916666666667,,26.725916666666667
94,2013-03-10,25.336624999999998,,25.336624999999998
94,2013-03-11,14.885458333333332,,14.885458333333332
94,2013-03-12,3.2064583333333334,,3.2064583333333334
94,2013-03-13,23.016333333333336,,23.016333333333336
94,2013-03-14,24.235625,,24.235625
94,2013-03-15,15.736333333333334,,15.736333333333334
94,2013-03-16,8.253333333333334,,8.253333333333334
94,2013-03-17,19.166666666666668,,19.166666666666668
94,2013-03-18,12.966875,,12.966875
94,2013-03-19,8.18625,,8.18625
94,2013-03-20,28.878249999999998,,28.878249999999998
94,2013-03-21,15.045,,15.045
94,2013-03-22,22.3105,,22.3105
94,2013-03-23,26.494208333333333,,26.494208333333333
94,2013-03-24,27.47729166666667,,27.47729166666667
94,2013-03-25,6.742333333333334,,6.742333333333334
94,2013-03-26,20.563166666666667,,20.563166666666667
94,2013-03-27,27.229875000000003,,27.229875000000003
94,2013-03-28,20.705708333333334,,20.705708333333334
94,2013-03-29,23.570291666666666,,23.570291666666666
94,2013-03-30,31.518958333333334,,31.518958333333334
94,2013-03-31,15.205833333333333,,15.205833333333333
94,2013-04-01,23.789749999999998,,23.789749999999998
94,2013-04-02,31.96229166666667,,31.96229166666667
94,2013-04-03,35.468875000000004,,35.468875000000004
94,2013-04-04,33.322291666666665,,33.322291666666665
94,2013-04-05,32.732458333333334,,32.732458333333334
94,2013-04-06,36.177125,,36.177125
94,2013-04-07,31.070333333333334,,31.070333333333334
94,2013-04-08,32.422625000000004,,32.422625000000004
94,2013-04-09,31.734458333333333,,31.734458333333333
94,2013-04-10,28.880208333333332,,28.880208333333332
94,2013-04-11,12.965541666666667,,12.965541666666667
94,2013-04-12,5.0508750000000004,,5.0508750000000004
94,2013-04-13,20.3835,,20.3835
94,2013-04-14,36.044958333333334,,36.044958333333334
94,2013-04-15,30.990875,,30.990875
94,2013-04-16,28.19141666666667,,28.19141666666667
94,2013-04-17,32.37108333333333,,32.37108333333333
94,2013-04-18,13.105416666666665,,13.105416666666665
94,2013-04-19,25.819083333333335,,25.819083333333335
94,2013-04-20,28.932291666666668,,28.932291666666668
94,2013-04-21,39.930458333333334,,39.930458333333334
94,2013-04-22,38.29241666666667,,38.29241666666667
94,2013-04-23,9.439458333333333,,9.439458333333333
94,2013-04-24,36.029291666666666,,36.029291666666666
94,2013-04-25,39.240874999999996,,39.240874999999996
94,2013-04-26,37.70908333333333,,37.70908333333333
94,2013-04-27,37.821083333333334,,37.821083333333334
94,2013-04-28,32.66341666666667,,32.66341666666667
94,2013-04-29,6.501333333333334,,6.501333333333334
94,2013-04-30,33.610791666666664,,33.610791666666664
94,2013-05-01,39.06379166666667,,39.06379166666667
94,2013-05-02,37.21879166666667,,37.21879166666667
94,2013-05-03,39.651833333333336,,39.651833333333336
94,2013-05-04,38.85491666666667,,38.85491666666667
94,2013-05-05,39.74420833333333,,39.74420833333333
94,2013-05-06,32.583333333333336,,32.583333333333336
94,2013-05-07,30.73183333333333,,30.73183333333333
94,2013-05-08,12.3685,,12.3685
94,2013-05-09,13.2325,,13.2325
94,2013-05-10,33.47466666666667,,33.47466666666667
94,2013-05-11,10.558625000000001,,10.558625000000001
94,2013-05-12,38.11066666666667,,38.11066666666667
94,2013-05-13,35.169333333333334,,35.169333333333334
94,2013-05-14,38.700625,,38.700625
94,2013-05-15,24.895916666666665,,24.895916666666665
94,2013-05-16,31.251333333333335,,31.251333333333335
94,2013-05-17,36.286541666666665,,36.286541666666665
94,2013-05-18,14.511833333333334,,14.511833333333334
94,2013-05-19,4.230541666666666,,4.230541666666666
94,2013-05-20,27.451833333333337,,27.451833333333337
94,2013-05-21,36.073,,36.073
94,2013-05-22,19.311875,,19.311875
94,2013-05-23,19.122416666666666,,19.122416666666666
94,2013-05-24,7.0951249999999995,,7.0951249999999995
94,2013-05-25,19.390666666666664,,19.390666666666664
94,2013-05-26,38.446666666666665,,38.446666666666665
94,2013-05-27,42.422625000000004,,42.422625000000004
94,2013-05-28,13.32425,,13.32425
94,2013-05-29,29.563875,,29.563875
94,2013-05-30,37.0235,,37.0235
94,2013-05-31,33.746125,,33.746125
94,2013-06-01,37.794333333333334,,37.794333333333334
94,2013-06-02,32.37645833333333,,32.37645833333333
94,2013-06-03,20.175958333333334,,20.175958333333334
94,2013-06-04,43.3125,,43.3125
94,2013-06-05,40.72208333333334,,40.72208333333334
94,2013-06-06,23.3125,,23.3125
94,2013-06-07,4.4427916666666665,,4.4427916666666665
94,2013-06-08,27.599041666666665,,27.599041666666665
94,2013-06-09,36.011125,,36.011125
94,2013-06-10,7.2519583333333335,,7.2519583333333335
94,2013-06-11,29.123791666666666,,29.123791666666666
94,2013-06-12,41.367916666666666,,41.367916666666666
94,2013-06-13,6.352875,,6.352875
94,2013-06-14,27.024124999999998,,27.024124999999998
94,2013-06-15,39.18033333333333,,39.18033333333333
94,2013-06-16,24.615333333333336,,24.615333333333336
94,2013-06-17,34.37054166666667,,34.37054166666667
94,2013-06-18,22.14979166666667,,22.14979166666667
94,2013-06-19,42.78295833333333,,42.78295833333333
94,2013-06-20,38.756875,,38.756875
94,2013-06-21,39.486291666666666,,39.486291666666666
94,2013-06-22,38.01179166666667,,38.01179166666667
94,2013-06-23,36.63933333333333,,36.63933333333333
94,2013-06-24,29.691458333333333,,29.691458333333333
94,2013-06-25,32.21883333333333,,32.21883333333333
94,2013-06-26,26.583291666666668,,26.583291666666668
94,2013-06-27,32.616166666666665,,32.616166666666665
94,2013-06-28,25.40925,,25.40925
94,2013-06-29,32.08975,,32.08975
94,2013-06-30,23.255875,,23.255875
94,2013-07-01,8.805416666666668,,8.805416666666668
94,2013-07-02,19.08475,,19.08475
94,2013-07-03,19.11075,,19.11075
94,2013-07-04,30.334416666666666,,30.334416666666666
94,2013-07-05,34.55891666666667,,34.55891666666667
94,2013-07-06,36.40629166666667,,36.40629166666667
94,2013-07-07,38.40241666666667,,38.40241666666667
94,2013-07-08,37.052083333333336,,37.052083333333336
94,2013-07-09,32.256499999999996,,32.256499999999996
94,2013-07-10,26.67804166666667,,26.67804166666667
94,2013-07-11,19.294625,,19.294625
94,2013-07-12,15.261166666666666,,15.261166666666666
94,2013-07-13,24.433916666666665,,24.433916666666665
94,2013-07-14,32.14233333333333,,32.14233333333333
94,2013-07-15,33.173875,,33.173875
94,2013-07-16,38.722,,38.722
94,2013-07-17,29.706416666666666,,29.706416666666666
94,2013-07-18,35.185541666666666,,35.185541666666666
94,2013-07-19,33.70908333333333,,33.70908333333333
94,2013-07-20,31.841791666666666,,31.841791666666666
94,2013-07-21,30.860708333333335,,30.860708333333335
94,2013-07-22,22.468125,,22.468125
94,2013-07-23,32.58166666666667,,32.58166666666667
94,2013-07-24,30.19304166666667,,30.19304166666667
94,2013-07-25,7.226541666666667,,7.226541666666667
94,2013-07-26,30.069083333333335,,30.069083333333335
94,2013-07-27,31.145916666666665,,31.145916666666665
94,2013-07-28,17.2565,,17.2565
94,2013-07-29,36.156375000000004,,36.156375000000004
94,2013-07-30,32.864666666666665,,32.864666666666665
94,2013-07-31,26.226583333333334,,26.226583333333334
94,2013-08-01,7.00325,,7.00325
94,2013-08-02,33.49545833333333,,33.49545833333333
94,2013-08-03,20.101666666666667,,20.101666666666667
94,2013-08-04,36.955083333333334,,36.955083333333334
94,2013-08-05,38.188208333333336,,38.188208333333336
94,2013-08-06,31.07625,,31.07625
94,2013-08-07,17.160166666666665,,17.160166666666665
94,2013-08-08,10.647208333333333,,10.647208333333333
94,2013-08-09,14.858041666666667,,14.858041666666667
94,2013-08-10,26.401708333333332,,26.401708333333332
94,2013-08-11,29.935000000000002,,29.935000000000002
94,2013-08-12,19.987,,19.987
94,2013-08-13,16.802083333333332,,16.802083333333332
94,2013-08-14,37.36208333333334,,37.36208333333334
94,2013-08-15,35.82425,,35.82425
94,2013-08-16,27.238916666666668,,27.238916666666668
94,2013-08-17,32.87775,,32.87775
94,2013-08-18,14.000708333333334,,14.000708333333334
94,2013-08-19,20.389916666666668,,20.389916666666668
94,2013-08-20,30.550833333333333,,30.550833333333333
94,2013-08-21,30.739,,30.739
94,2013-08-22,11.3255,,11.3255
94,2013-08-23,27.51825,,27.51825
94,2013-08-24,36.00658333333333,,36.00658333333333
94,2013-08-25,34.393875,,34.393875
94,2013-08-26,18.544958333333334,,18.544958333333334
94,2013-08-27,29.53325,,29.53325
94,2013-08-28,14.34775,,14.34775
94,2013-08-29,22.674458333333334,,22.674458333333334
94,2013-08-30,24.699250000000003,,24.699250000000003
94,2013-08-31,19.416083333333333,,19.416083333333333
94,2013-09-01,14.6915,,14.6915
94,2013-09-02,10.628916666666667,,10.628916666666667
94,2013-09-03,22.365333333333336,,22.365333333333336
94,2013-09-04,32.938208333333336,,32.938208333333336
94,2013-09-05,30.240875,,30.240875
94,2013-09-06,32.696083333333334,,32.696083333333334
94,2013-09-07,29.892625,,29.892625
94,2013-09-08,27.267583333333334,,27.267583333333334
94,2013-09-09,26.933625000000003,,26.933625000000003
94,2013-09-10,17.941416666666665,,17.941416666666665
94,2013-09-11,25.732416666666666,,25.732416666666666
94,2013-09-12,18.598375,,18.598375
94,2013-09-13,19.12775,,19.12775
94,2013-09-14,24.252666666666666,,24.252666666666666
94,2013-09-15,28.211583333333333,,28.211583333333333
94,2013-09-16,14.586625,,14.586625
94,2013-09-17,31.314541666666667,,31.314541666666667
94,2013-09-18,29.636166666666668,,29.636166666666668
94,2013-09-19,29.000041666666664,,29.000041666666664
94,2013-09-20,27.508458333333333,,27.508458333333333
94,2013-09-21,19.02091666666667,,19.02091666666667
94,2013-09-22,29.143291666666666,,29.143291666666666
94,2013-09-23,29.866583333333335,,29.866583333333335
94,2013-09-24,28.92125,,28.92125
94,2013-09-25,25.030666666666665,,25.030666666666665
94,2013-09-26,18.9265,,18.9265
94,2013-09-27,17.941375,,17.941375
94,2013-09-28,26.779375,,26.779375
94,2013-09-29,24.527375000000003,,24.527375000000003
94,2013-09-30,24.517083333333332,,24.517083333333332
94,2013-10-01,23.95975,,23.95975
94,2013-10-02,23.952625,,23.952625
94,2013-10-03,17.988375,,17.988375
94,2013-10-04,18.138125,,18.138125
94,2013-10-05,14.271500000000001,,14.271500000000001
94,2013-10-06,2.8880416666666666,,2.8880416666666666
94,2013-10-07,9.346375,,9.346375
94,2013-10-08,22.63479166666667,,22.63479166666667
94,2013-10-09,14.565833333333332,,14.565833333333332
94,2013-10-10,6.1490833333333335,,6.1490833333333335
94,2013-10-11,6.472666666666666,,6.472666666666666
94,2013-10-12,21.51825,,21.51825
94,2013-10-13,18.683541666666667,,18.683541666666667
94,2013-10-14,19.046916666666664,,19.046916666666664
94,2013-10-15,21.127083333333335,,21.127083333333335
94,2013-10-16,10.658208333333333,,10.658208333333333
94,2013-10-17,12.535916666666667,,12.535916666666667
94,2013-10-18,20.966791666666666,,20.966791666666666
94,2013-10-19,10.117208333333332,,10.117208333333332
94,2013-10-20,20.738916666666665,,20.738916666666665
94,2013-10-21,19.566416666666665,,19.566416666666665
94,2013-10-22,13.170541666666667,,13.170541666666667
94,2013-10-23,8.134791666666667,,8.134791666666667
94,2013-10-24,18.971375,,18.971375
94,2013-10-25,16.281875,,16.281875
94,2013-10-26,18.586583333333333,,18.586583333333333
94,2013-10-27,18.347041666666666,,18.347041666666666
94,2013-10-28,18.0665,,18.0665
94,2013-10-29,17.315833333333334,,17.315833333333334
94,2013-10-30,6.739583333333333,,6.739583333333333
94,2013-10-31,3.517,,3.517
94,2013-11-01,6.373708333333333,,6.373708333333333
94,2013-11-02,13.745458333333334,,13.745458333333334
94,2013-11-03,11.658291666666665,,11.658291666666665
94,2013-11-04,17.909541666666666,,17.909541666666666
94,2013-11-05,9.430375,,9.430375
94,2013-11-06,12.019541666666667,,12.019541666666667
94,2013-11-07,2.599625,,2.599625
94,2013-11-08,13.408833333333334,,13.408833333333334
94,2013-11-09,10.78325,,10.78325
94,2013-11-10,12.962874999999999,,12.962874999999999
94,2013-11-11,11.029291666666666,,11.029291666666666
94,2013-11-12,5.026083333333333,,5.026083333333333
94,2013-11-13,15.72725,,15.72725
94,2013-11-14,15.107458333333334,,15.107458333333334
94,2013-11-15,11.090541666666667,,11.090541666666667
94,2013-11-16,12.041708333333332,,12.041708333333332
94,2013-11-17,3.4277083333333334,,3.4277083333333334
94,2013-11-18,13.066458333333335,,13.066458333333335
94,2013-11-19,14.813833333333333,,14.813833333333333
94,2013-11-20,12.932875000000001,,12.932875000000001
94,2013-11-21,12.334666666666665,,12.334666666666665
94,2013-11-22,3.9317499999999996,,3.9317499999999996
94,2013-11-23,12.84175,,12.84175
94,2013-11-24,13.30475,,13.30475
94,2013-11-25,12.813749999999999,,12.813749999999999
94,2013-11-26,3.6517083333333336,,3.6517083333333336
94,2013-11-27,1.5058333333333334,,1.5058333333333334
94,2013-11-28,13.051458333333334,,13.051458333333334
94,2013-11-29,12.075541666666666,,12.075541666666666
94,2013-11-30,11.932375,,11.932375
94,2013-12-01,10.127625,,10.127625
94,2013-12-02,5.983125,,5.983125
94,2013-12-03,9.691374999999999,,9.691374999999999
94,2013-12-04,8.359416666666666,,8.359416666666666
94,2013-12-05,2.16025,,2.16025
94,2013-12-06,1.1250416666666667,,1.1250416666666667
94,2013-12-07,8.852916666666667,,8.852916666666667
94,2013-12-08,3.192083333333333,,3.192083333333333
94,2013-12-09,2.4564166666666667,,2.4564166666666667
94,2013-12-10,0.2344166666666667,,0.2344166666666667
94,2013-12-11,3.943375,,3.943375
94,2013-12-12,10.210916666666668,,10.210916666666668
94,2013-12-13,8.435625,,8.435625
94,2013-12-14,0.6693333333333333,,0.6693333333333333
94,2013-12-15,2.7167499999999998,,2.7167499999999998
94,2013-12-16,5.106208333333334,,5.106208333333334
94,2013-12-17,0.09050000000000001,,0.09050000000000001
94,2013-12-18,0.6803750000000001,,0.6803750000000001
94,2013-12-19,4.955041666666667,,4.955041666666667
94,2013-12-20,7.769541666666666,,7.769541666666666
94,2013-12-21,8.089208333333334,,8.089208333333334
94,2013-12-22,3.7129166666666666,,3.7129166666666666
94,2013-12-23,0.8679166666666666,,0.8679166666666666
94,2013-12-24,10.570333333333332,,10.570333333333332
94,2013-12-25,11.276791666666666,,11.276791666666666
94,2013-12-26,4.998708333333333,,4.998708333333333
94,2013-12-27,9.292958333333333,,9.292958333333333
94,2013-12-28,8.283875,,8.283875
94,2013-12-29,1.2037916666666666,,1.2037916666666666
94,2013-12-30,4.193333333333333,,4.193333333333333
94,2013-12-31,8.196583333333333,,8.196583333333333
94,2014-01-01,7.532583333333334,,7.532583333333334
94,2014-01-02,0.36975,,0.36975
94,2014-01-03,6.200500000000001,,6.200500000000001
94,2014-01-04,8.652375000000001,,8.652375000000001
94,2014-01-05,1.6380416666666668,,1.6380416666666668